This is the latest recevied weather packets stored in our database for station/object K4DNM. If no packets are shown the sender has not sent any weather packets the latest 1 day(s).
| Time | Temp. | Humidity | Pressure | Rain* | Wind** | Luminosity | Snow |
|---|---|---|---|---|---|---|---|
| 1778034860 | 20° C | 69% | 1015.4 hPa | 0 mm | 1.79 m/s, 169° | 0 W/m² | - |
| 1778034558 | 20° C | 68% | 1015.4 hPa | 0 mm | 1.79 m/s, 134° | 0 W/m² | - |
| 1778034257 | 20° C | 67% | 1015.3 hPa | 0 mm | 1.79 m/s, 180° | 0 W/m² | - |
| 1778033953 | 20° C | 67% | 1015.2 hPa | 0 mm | 1.79 m/s, 209° | 0 W/m² | - |
| 1778033655 | 20° C | 66% | 1015.2 hPa | 0 mm | 1.79 m/s, 151° | 0 W/m² | - |
| 1778033354 | 20.56° C | 65% | 1015.1 hPa | 0 mm | 1.79 m/s, 4° | 0 W/m² | - |
| 1778033054 | 20.56° C | 65% | 1015 hPa | 0 mm | 1.79 m/s, 168° | 0 W/m² | - |
| 1778032816 | 20.56° C | 64% | 1015 hPa | 0 mm | 1.79 m/s, 208° | 0 W/m² | - |
| 1778032454 | 20.56° C | 63% | 1014.9 hPa | 0 mm | 1.79 m/s, 129° | 0 W/m² | - |
| 1778032157 | 20.56° C | 63% | 1014.8 hPa | 0 mm | 2.68 m/s, 168° | 0 W/m² | - |
| 1778031854 | 20.56° C | 62% | 1014.7 hPa | 0 mm | 2.68 m/s, 206° | 0 W/m² | - |
| 1778031555 | 21.11° C | 62% | 1014.6 hPa | 0 mm | 1.79 m/s, 154° | 0 W/m² | - |
| 1778031315 | 21.11° C | 61% | 1014.6 hPa | 0 mm | 1.79 m/s, 256° | 0 W/m² | - |
| 1778030955 | 21.11° C | 61% | 1014.6 hPa | 0 mm | 1.79 m/s, 192° | 0 W/m² | - |
| 1778030652 | 21.11° C | 60% | 1014.7 hPa | 0 mm | 1.79 m/s, 188° | 0 W/m² | - |
| 1778030412 | 21.67° C | 59% | 1014.5 hPa | 0 mm | 1.79 m/s, 206° | 0 W/m² | - |
| 1778030053 | 21.67° C | 59% | 1014.5 hPa | 0 mm | 1.79 m/s, 173° | 0 W/m² | - |
| 1778029753 | 21.67° C | 58% | 1014.4 hPa | 0 mm | 1.79 m/s, 253° | 0 W/m² | - |
| 1778029454 | 21.67° C | 58% | 1014.2 hPa | 0 mm | 1.79 m/s, 175° | 0 W/m² | - |
| 1778029153 | 21.67° C | 57% | 1014.2 hPa | 0 mm | 1.79 m/s, 129° | 0 W/m² | - |
| 1778028854 | 22.22° C | 57% | 1014.1 hPa | 0 mm | 1.79 m/s, 178° | 0 W/m² | - |
| 1778028612 | 22.22° C | 56% | 1014 hPa | 0 mm | 1.79 m/s, 183° | 0 W/m² | - |
| 1778028253 | 22.22° C | 56% | 1013.9 hPa | 0 mm | 1.79 m/s, 222° | 0 W/m² | - |
| 1778027953 | 22.22° C | 55% | 1013.9 hPa | 0 mm | 1.79 m/s, 194° | 0 W/m² | - |
| 1778027654 | 22.22° C | 54% | 1013.8 hPa | 0 mm | 1.79 m/s, 204° | 0 W/m² | - |
* Rain latest hour (hover to see other rain measurements)
** Current wind speed in m/s (hover to see current wind gust speed)